User: anonymous   Login
Location: Unspecified
(0.0000°N, 0.0000°E)
Time: 15:33:26
(UTC+00:00)
Language:

CSTB 1 - Orbit

View from above orbital plane
View from above orbital plane
View from above satellite
View from above satellite

Ground track
Ground track

The orbit data is extracted from the following two-line orbital elements,

1 31122U 07012F   18115.85519733  .00000204  00000-0  49933-4 0  9994
2 31122  98.0665  70.9334 0077361 227.5970 131.8668 14.60703370586437
Epoch (UTC): 25 April 2018 20:31:29
Eccentricity: 0.0077361
inclination: 98.0665°
perigee height: 636 km
apogee height: 745 km
right ascension of ascending node: 70.9334°
argument of perigee: 227.5970°
revolutions per day: 14.60703370
mean anomaly at epoch: 131.8668°
orbit number at epoch: 58643

The dashed part of the orbit path shows where the satellite is in the earth's shadow,  

DLR